{"data":{"norad_id":63244,"epoch":"2026-09-22T22:11:15.121248Z","epoch_age_seconds":99140,"freshness":"FRESH","line1":"1 63244U 25052AL  26265.92448057  .00001806  00000+0  16856-3 0  9996","line2":"2 63244  97.6752 155.3213 0003398 214.7653 145.3347 14.95420001 83215","mean_motion":14.95420001,"eccentricity":0.0003398,"inclination_deg":97.6752,"raan_deg":155.3213,"arg_perigee_deg":214.7653,"mean_anomaly_deg":145.3347,"bstar":0.00016856,"rev_number":8321,"period_min":96.294017669756,"perigee_km":578.70467413801,"apogee_km":583.43415081593,"semimajor_km":6959.206412477,"source":"CELESTRAK","updated_at":"2026-09-23T09:00:21.907691Z"}}